SES-1

Last updated on Tue Sep 22 2026 00:03:11 GMT+0000 (Coordinated Universal Time)

1 36516U 10016A 26264.54948414 -.00000118 00000+0 00000+0 0 9997 2 36516 0.0443 284.0525 0002618 264.2280 268.9778 1.00272181 60006
UTC large
Height (km)
Speed (km/s)
/
Latitude / Longitude
Inclination (degrees)
Orbital Period (minutes)
Azimuth
Elevation
Range (km)
Doppler Factor

Next 0 passes for location: London (51.5072 / 0.1276)

No passes found over London.
SES-1